| time (UTC) | temp F | wind direction | speed MPH | gust MPH | rain 1hr in | rain 24hr in | rain mn in | humidity % | barometer mb |
| 20260507015228 | 45 | 307 | 0.0 | 0.0 | 0.00 | 0.00 | 0.00 | ||
| 20260507014715 | 46 | 10 | 0.0 | 0.0 | 0.00 | 0.00 | 0.00 | ||
| 20260507014203 | 47 | 317 | 0.0 | 0.0 | 0.00 | 0.00 | 0.00 | ||
| 20260507013650 | 49 | 333 | 0.0 | 0.0 | 0.00 | 0.00 | 0.00 | ||
| 20260507013137 | 50 | 317 | 0.0 | 0.0 | 0.00 | 0.00 | 0.00 | ||
| 20260507012624 | 51 | 315 | 0.0 | 1.0 | 0.00 | 0.00 | 0.00 | ||
| 20260507012111 | 53 | 315 | 0.0 | 3.0 | 0.00 | 0.00 | 0.00 | ||
| 20260507011558 | 54 | 331 | 0.0 | 3.0 | 0.00 | 0.00 | 0.00 | ||
| 20260507011046 | 55 | 322 | 0.0 | 5.0 | 0.00 | 0.00 | 0.00 | ||
| 20260507010533 | 56 | 312 | 0.0 | 1.0 | 0.00 | 0.00 | 0.00 | ||
| 20260507010020 | 56 | 316 | 1.0 | 6.0 | 0.00 | 0.00 | 0.00 | ||
| 20260507005507 | 57 | 317 | 2.0 | 5.0 | 0.00 | 0.00 | 0.00 | ||
| 20260507004954 | 58 | 319 | 2.0 | 11.0 | 0.00 | 0.00 | 0.00 | ||
| 20260507004441 | 58 | 322 | 0.0 | 1.0 | 0.00 | 0.00 | 0.00 | ||
| 20260507003928 | 58 | 324 | 0.0 | 1.0 | 0.00 | 0.00 | 0.00 | ||
| 20260507003415 | 58 | 322 | 2.0 | 8.0 | 0.00 | 0.00 | 0.00 | ||
| 20260507002903 | 58 | 328 | 0.0 | 1.0 | 0.00 | 0.00 | 0.00 | ||
| 20260507001837 | 58 | 335 | 0.0 | 1.0 | 0.00 | 0.00 | 0.00 | ||
| 20260507000811 | 58 | 315 | 0.0 | 7.0 | 0.00 | 0.00 | 0.00 | ||
| 20260507000259 | 59 | 333 | 0.0 | 5.0 | 0.00 | 0.00 | 0.00 | ||
| 20260506235745 | 59 | 318 | 0.0 | 5.0 | 0.00 | 0.00 | 0.00 | ||
| 20260506235233 | 59 | 320 | 2.0 | 7.0 | 0.00 | 0.00 | 0.00 | ||
| 20260506234720 | 59 | 327 | 0.0 | 3.0 | 0.00 | 0.00 | 0.00 | ||
| 20260506234207 | 59 | 319 | 0.0 | 6.0 | 0.00 | 0.00 | 0.00 | ||
| 20260506233654 | 60 | 324 | 0.0 | 11.0 | 0.00 | 0.00 | 0.00 | ||
| 20260506233141 | 59 | 315 | 0.0 | 9.0 | 0.00 | 0.00 | 0.00 | ||
| 20260506232628 | 60 | 315 | 0.0 | 9.0 | 0.00 | 0.00 | 0.00 | ||
| 20260506232116 | 60 | 317 | 0.0 | 9.0 | 0.00 | 0.00 | 0.00 | ||
| 20260506231603 | 58 | 327 | 0.0 | 4.0 | 0.00 | 0.00 | 0.00 | ||
| 20260506231050 | 57 | 337 | 0.0 | 6.0 | 0.00 | 0.00 | 0.00 | ||
| 20260506230537 | 54 | 323 | 0.0 | 7.0 | 0.00 | 0.00 | 0.00 | ||
| 20260506230024 | 53 | 293 | 0.0 | 4.0 | 0.00 | 0.00 | 0.00 | ||
| 20260506225511 | 55 | 318 | 0.0 | 6.0 | 0.00 | 0.00 | 0.00 | ||
| 20260506224958 | 55 | 337 | 0.0 | 3.0 | 0.00 | 0.00 | 0.00 | ||
| 20260506224446 | 55 | 315 | 0.0 | 6.0 | 0.00 | 0.00 | 0.00 | ||
| 20260506223933 | 54 | 323 | 0.0 | 1.0 | 0.00 | 0.00 | 0.00 | ||
| 20260506223420 | 56 | 315 | 0.0 | 2.0 | 0.00 | 0.00 | 0.00 | ||
| 20260506222907 | 57 | 311 | 0.0 | 3.0 | 0.00 | 0.00 | 0.00 | ||
| 20260506222354 | 58 | 292 | 0.0 | 2.0 | 0.00 | 0.00 | 0.00 | ||
| 20260506221841 | 58 | 316 | 0.0 | 9.0 | 0.00 | 0.00 | 0.00 | ||
| 20260506221329 | 59 | 342 | 0.0 | 1.0 | 0.00 | 0.00 | 0.00 | ||
| 20260506220816 | 59 | 301 | 0.0 | 7.0 | 0.00 | 0.00 | 0.00 | ||
| 20260506220303 | 58 | 316 | 0.0 | 4.0 | 0.00 | 0.00 | 0.00 | ||
| 20260506215750 | 56 | 316 | 0.0 | 3.0 | 0.00 | 0.00 | 0.00 | ||
| 20260506215237 | 57 | 316 | 0.0 | 5.0 | 0.00 | 0.00 | 0.00 | ||
| 20260506214724 | 58 | 323 | 0.0 | 1.0 | 0.00 | 0.00 | 0.00 | ||
| 20260506214211 | 61 | 320 | 0.0 | 8.0 | 0.00 | 0.00 | 0.00 | ||
| 20260506213659 | 61 | 330 | 0.0 | 0.0 | 0.00 | 0.00 | 0.00 | ||
| 20260506212633 | 60 | 320 | 0.0 | 11.0 | 0.00 | 0.00 | 0.00 | ||
| 20260506212120 | 60 | 319 | 0.0 | 1.0 | 0.00 | 0.00 | 0.00 | ||
| 20260506211607 | 60 | 345 | 0.0 | 5.0 | 0.00 | 0.00 | 0.00 | ||
| 20260506210542 | 59 | 322 | 0.0 | 4.0 | 0.00 | 0.00 | 0.00 | ||
| 20260506210029 | 58 | 329 | 0.0 | 1.0 | 0.00 | 0.00 | 0.00 | ||
| 20260506205516 | 56 | 310 | 0.0 | 5.0 | 0.00 | 0.00 | 0.00 | ||
| 20260506205003 | 54 | 331 | 0.0 | 1.0 | 0.00 | 0.00 | 0.00 | ||
| 20260506203937 | 53 | 320 | 0.0 | 5.0 | 0.00 | 0.00 | 0.00 | ||
| 20260506203424 | 54 | 331 | 0.0 | 1.0 | 0.00 | 0.00 | 0.00 | ||
| 20260506202912 | 54 | 326 | 0.0 | 1.0 | 0.00 | 0.00 | 0.00 | ||
| 20260506202359 | 54 | 292 | 0.0 | 0.0 | 0.00 | 0.00 | 0.00 | ||
| 20260506201846 | 53 | 326 | 0.0 | 0.0 | 0.00 | 0.00 | 0.00 | ||
| 20260506201333 | 52 | 321 | 0.0 | 0.0 | 0.00 | 0.00 | 0.00 | ||
| 20260506200820 | 51 | 335 | 0.0 | 0.0 | 0.00 | 0.00 | 0.00 | ||
| 20260506200308 | 52 | 302 | 0.0 | 0.0 | 0.00 | 0.00 | 0.00 | ||
| 20260506195755 | 53 | 337 | 0.0 | 1.0 | 0.00 | 0.00 | 0.00 | ||
| 20260506195242 | 53 | 0 | 0.0 | 0.0 | 0.00 | 0.00 | 0.00 | ||
| 20260506194216 | 51 | 160 | 0.0 | 0.0 | 0.00 | 0.00 | 0.00 | ||
| 20260506193703 | 50 | 45 | 0.0 | 0.0 | 0.00 | 0.00 | 0.00 | ||
| 20260506193150 | 50 | 337 | 0.0 | 0.0 | 0.00 | 0.00 | 0.00 | ||
| 20260506192637 | 50 | 133 | 0.0 | 0.0 | 0.00 | 0.00 | 0.00 | ||
| 20260506192125 | 50 | 337 | 0.0 | 2.0 | 0.00 | 0.00 | 0.00 | ||
| 20260506191612 | 50 | 340 | 0.0 | 0.0 | 0.00 | 0.00 | 0.00 | ||
| 20260506191059 | 50 | 45 | 0.0 | 3.0 | 0.00 | 0.00 | 0.00 | ||
| 20260506190546 | 51 | 350 | 0.0 | 0.0 | 0.00 | 0.00 | 0.00 | ||
| 20260506190033 | 51 | 319 | 0.0 | 0.0 | 0.00 | 0.00 | 0.00 | ||
| 20260506185521 | 52 | 334 | 0.0 | 3.0 | 0.00 | 0.00 | 0.00 | ||
| 20260506184455 | 55 | 315 | 0.0 | 2.0 | 0.00 | 0.00 | 0.00 | ||
| 20260506183942 | 55 | 348 | 0.0 | 3.0 | 0.00 | 0.00 | 0.00 | ||
| 20260506183429 | 55 | 320 | 0.0 | 7.0 | 0.00 | 0.00 | 0.00 | ||
| 20260506182916 | 54 | 315 | 0.0 | 0.0 | 0.00 | 0.00 | 0.00 | ||
| 20260506182403 | 52 | 10 | 0.0 | 0.0 | 0.00 | 0.00 | 0.00 | ||
| 20260506181851 | 49 | 341 | 0.0 | 0.0 | 0.00 | 0.00 | 0.00 | ||
| 20260506181338 | 49 | 316 | 0.0 | 3.0 | 0.00 | 0.00 | 0.00 | ||
| 20260506180825 | 51 | 324 | 0.0 | 6.0 | 0.00 | 0.00 | 0.00 | ||
| 20260506180312 | 51 | 310 | 0.0 | 4.0 | 0.00 | 0.00 | 0.00 | ||
| 20260506175759 | 51 | 317 | 0.0 | 8.0 | 0.00 | 0.00 | 0.00 | ||
| 20260506174734 | 48 | 325 | 0.0 | 0.0 | 0.00 | 0.00 | 0.00 | ||
| 20260506174220 | 46 | 327 | 0.0 | 2.0 | 0.00 | 0.00 | 0.00 | ||
| 20260506173707 | 46 | 334 | 0.0 | 3.0 | 0.00 | 0.00 | 0.00 | ||
| 20260506173155 | 45 | 318 | 0.0 | 2.0 | 0.00 | 0.00 | 0.00 | ||
| 20260506172642 | 45 | 318 | 0.0 | 1.0 | 0.00 | 0.00 | 0.00 | ||
| 20260506172129 | 45 | 346 | 0.0 | 0.0 | 0.00 | 0.00 | 0.00 | ||
| 20260506171616 | 44 | 317 | 0.0 | 0.0 | 0.00 | 0.00 | 0.00 | ||
| 20260506171103 | 43 | 330 | 0.0 | 0.0 | 0.00 | 0.00 | 0.00 | ||
| 20260506170551 | 42 | 327 | 0.0 | 0.0 | 0.00 | 0.00 | 0.00 | ||
| 20260506170038 | 42 | 326 | 0.0 | 0.0 | 0.00 | 0.00 | 0.00 | ||
| 20260506165525 | 41 | 317 | 0.0 | 4.0 | 0.00 | 0.00 | 0.00 | ||
| 20260506165012 | 41 | 317 | 0.0 | 0.0 | 0.00 | 0.00 | 0.00 | ||
| 20260506164459 | 41 | 319 | 0.0 | 4.0 | 0.00 | 0.00 | 0.00 | ||
| 20260506163946 | 41 | 311 | 0.0 | 0.0 | 0.00 | 0.00 | 0.00 | ||
| 20260506163433 | 41 | 331 | 0.0 | 5.0 | 0.00 | 0.00 | 0.00 | ||
| 20260506162921 | 40 | 317 | 0.0 | 0.0 | 0.00 | 0.00 | 0.00 | ||
| 20260506162408 | 40 | 325 | 0.0 | 1.0 | 0.00 | 0.00 | 0.00 | ||
| 20260506161855 | 40 | 317 | 0.0 | 3.0 | 0.00 | 0.00 | 0.00 | ||
| 20260506160829 | 40 | 316 | 0.0 | 5.0 | 0.00 | 0.00 | 0.00 | ||
| 20260506160318 | 40 | 324 | 0.0 | 0.0 | 0.00 | 0.00 | 0.00 | ||
| 20260506155804 | 40 | 319 | 0.0 | 3.0 | 0.00 | 0.00 | 0.00 | ||
| 20260506155251 | 40 | 327 | 0.0 | 0.0 | 0.00 | 0.00 | 0.00 | ||
| 20260506154738 | 39 | 322 | 0.0 | 2.0 | 0.00 | 0.00 | 0.00 | ||
| 20260506154225 | 39 | 330 | 0.0 | 0.0 | 0.00 | 0.00 | 0.00 | ||
| 20260506153159 | 38 | 318 | 0.0 | 1.0 | 0.00 | 0.00 | 0.00 | ||
| 20260506152647 | 38 | 322 | 0.0 | 0.0 | 0.00 | 0.00 | 0.00 | ||
| 20260506152134 | 38 | 315 | 0.0 | 6.0 | 0.00 | 0.00 | 0.00 | ||
| 20260506151621 | 38 | 306 | 0.0 | 1.0 | 0.00 | 0.00 | 0.00 | ||
| 20260506151108 | 38 | 318 | 0.0 | 2.0 | 0.00 | 0.00 | 0.00 | ||
| 20260506150555 | 38 | 346 | 0.0 | 0.0 | 0.00 | 0.00 | 0.00 | ||
| 20260506150042 | 37 | 336 | 0.0 | 0.0 | 0.00 | 0.00 | 0.00 | ||
| 20260506145530 | 37 | 320 | 0.0 | 0.0 | 0.00 | 0.00 | 0.00 | ||
| 20260506145017 | 37 | 2 | 0.0 | 1.0 | 0.00 | 0.00 | 0.00 | ||
| 20260506144505 | 37 | 334 | 0.0 | 0.0 | 0.00 | 0.00 | 0.00 | ||
| 20260506143438 | 36 | 332 | 0.0 | 1.0 | 0.00 | 0.00 | 0.00 | ||
| 20260506142925 | 36 | 328 | 0.0 | 0.0 | 0.00 | 0.00 | 0.00 | ||
| 20260506142412 | 35 | 344 | 0.0 | 0.0 | 0.00 | 0.00 | 0.00 | ||
| 20260506141859 | 35 | 320 | 0.0 | 0.0 | 0.00 | 0.00 | 0.00 | ||
| 20260506141347 | 34 | 335 | 0.0 | 0.0 | 0.00 | 0.00 | 0.00 | ||
| 20260506140834 | 34 | 324 | 0.0 | 0.0 | 0.00 | 0.00 | 0.00 | ||
| 20260506140321 | 34 | 331 | 0.0 | 0.0 | 0.00 | 0.00 | 0.00 | ||
| 20260506135808 | 34 | 319 | 0.0 | 1.0 | 0.00 | 0.00 | 0.00 | ||
| 20260506135255 | 34 | 329 | 0.0 | 0.0 | 0.00 | 0.00 | 0.00 | ||
| 20260506134230 | 34 | 317 | 0.0 | 0.0 | 0.00 | 0.00 | 0.00 | ||
| 20260506133717 | 34 | 348 | 0.0 | 0.0 | 0.00 | 0.00 | 0.00 | ||
| 20260506133204 | 34 | 195 | 0.0 | 0.0 | 0.00 | 0.00 | 0.00 | ||
| 20260506132651 | 34 | 341 | 0.0 | 0.0 | 0.00 | 0.00 | 0.00 | ||
| 20260506131625 | 34 | 330 | 0.0 | 0.0 | 0.00 | 0.00 | 0.00 | ||
| 20260506131113 | 34 | 338 | 0.0 | 0.0 | 0.00 | 0.00 | 0.00 | ||
| 20260506130600 | 34 | 335 | 0.0 | 0.0 | 0.00 | 0.00 | 0.00 | ||
| 20260506130047 | 34 | 0 | 0.0 | 0.0 | 0.00 | 0.00 | 0.00 | ||
| 20260506125534 | 34 | 333 | 0.0 | 0.0 | 0.00 | 0.00 | 0.00 | ||
| 20260506125021 | 34 | 277 | 0.0 | 0.0 | 0.00 | 0.00 | 0.00 | ||
| 20260506124509 | 35 | 165 | 0.0 | 0.0 | 0.00 | 0.00 | 0.00 | ||
| 20260506123956 | 35 | 338 | 0.0 | 0.0 | 0.00 | 0.00 | 0.00 | ||
| 20260506123443 | 35 | 328 | 0.0 | 1.0 | 0.00 | 0.00 | 0.00 | ||
| 20260506122930 | 36 | 335 | 0.0 | 0.0 | 0.00 | 0.00 | 0.00 | ||
| 20260506122417 | 36 | 327 | 0.0 | 0.0 | 0.00 | 0.00 | 0.00 | ||
| 20260506121904 | 36 | 324 | 0.0 | 0.0 | 0.00 | 0.00 | 0.00 | ||
| 20260506121351 | 37 | 327 | 0.0 | 0.0 | 0.00 | 0.00 | 0.00 | ||
| 20260506120838 | 37 | 322 | 0.0 | 0.0 | 0.00 | 0.00 | 0.00 | ||
| 20260506120326 | 37 | 339 | 0.0 | 0.0 | 0.00 | 0.00 | 0.00 | ||
| 20260506115813 | 38 | 326 | 0.0 | 0.0 | 0.00 | 0.00 | 0.00 | ||
| 20260506115300 | 38 | 324 | 0.0 | 0.0 | 0.00 | 0.00 | 0.00 | ||
| 20260506114747 | 38 | 317 | 0.0 | 0.0 | 0.00 | 0.00 | 0.00 | ||
| 20260506114234 | 39 | 0 | 0.0 | 0.0 | 0.00 | 0.00 | 0.00 | ||
| 20260506113722 | 39 | 329 | 0.0 | 0.0 | 0.00 | 0.00 | 0.00 | ||
| 20260506113209 | 39 | 352 | 0.0 | 0.0 | 0.00 | 0.00 | 0.00 | ||
| 20260506112143 | 39 | 325 | 0.0 | 0.0 | 0.00 | 0.00 | 0.00 | ||
| 20260506111630 | 40 | 332 | 0.0 | 0.0 | 0.00 | 0.00 | 0.00 | ||
| 20260506111117 | 40 | 333 | 0.0 | 0.0 | 0.00 | 0.00 | 0.00 | ||
| 20260506110604 | 40 | 333 | 0.0 | 0.0 | 0.00 | 0.00 | 0.00 | ||
| 20260506110051 | 40 | 336 | 0.0 | 0.0 | 0.00 | 0.00 | 0.00 | ||
| 20260506105539 | 40 | 36 | 0.0 | 0.0 | 0.00 | 0.00 | 0.00 | ||
| 20260506105026 | 40 | 18 | 0.0 | 0.0 | 0.00 | 0.00 | 0.00 | ||
| 20260506104513 | 39 | 334 | 0.0 | 0.0 | 0.00 | 0.00 | 0.00 | ||
| 20260506104000 | 39 | 61 | 0.0 | 0.0 | 0.00 | 0.00 | 0.00 | ||
| 20260506103447 | 39 | 108 | 0.0 | 0.0 | 0.00 | 0.00 | 0.00 | ||
| 20260506102935 | 39 | 277 | 0.0 | 0.0 | 0.00 | 0.00 | 0.00 | ||
| 20260506102421 | 39 | 52 | 0.0 | 0.0 | 0.00 | 0.00 | 0.00 | ||
| 20260506101908 | 38 | 67 | 0.0 | 0.0 | 0.00 | 0.00 | 0.00 | ||
| 20260506101356 | 38 | 330 | 0.0 | 0.0 | 0.00 | 0.00 | 0.00 | ||
| 20260506100843 | 38 | 330 | 0.0 | 0.0 | 0.00 | 0.00 | 0.00 | ||
| 20260506100330 | 38 | 98 | 0.0 | 0.0 | 0.00 | 0.00 | 0.00 | ||
| 20260506095306 | 38 | 202 | 0.0 | 0.0 | 0.00 | 0.00 | 0.00 | ||
| 20260506094752 | 38 | 3 | 0.0 | 0.0 | 0.00 | 0.00 | 0.00 | ||
| 20260506094239 | 37 | 330 | 0.0 | 0.0 | 0.00 | 0.00 | 0.00 | ||
| 20260506093726 | 37 | 157 | 0.0 | 0.0 | 0.00 | 0.00 | 0.00 | ||
| 20260506093213 | 37 | 80 | 0.0 | 0.0 | 0.00 | 0.00 | 0.00 | ||
| 20260506092700 | 37 | 22 | 0.0 | 0.0 | 0.00 | 0.00 | 0.00 | ||
| 20260506091634 | 37 | 292 | 0.0 | 0.0 | 0.00 | 0.00 | 0.00 | ||
| 20260506091122 | 38 | 247 | 0.0 | 0.0 | 0.00 | 0.00 | 0.00 | ||
| 20260506090609 | 39 | 27 | 0.0 | 0.0 | 0.00 | 0.00 | 0.00 | ||
| 20260506090056 | 39 | 15 | 0.0 | 0.0 | 0.00 | 0.00 | 0.00 | ||
| 20260506085543 | 40 | 337 | 0.0 | 0.0 | 0.00 | 0.00 | 0.00 | ||
| 20260506085030 | 40 | 337 | 0.0 | 0.0 | 0.00 | 0.00 | 0.00 | ||
| 20260506084518 | 40 | 78 | 0.0 | 0.0 | 0.00 | 0.00 | 0.00 | ||
| 20260506084005 | 40 | 352 | 0.0 | 0.0 | 0.00 | 0.00 | 0.00 | ||
| 20260506083452 | 40 | 335 | 0.0 | 0.0 | 0.00 | 0.00 | 0.00 | ||
| 20260506082939 | 40 | 341 | 0.0 | 0.0 | 0.00 | 0.00 | 0.00 | ||
| 20260506082426 | 40 | 322 | 0.0 | 0.0 | 0.00 | 0.00 | 0.00 | ||
| 20260506081913 | 40 | 324 | 0.0 | 0.0 | 0.00 | 0.00 | 0.00 | ||
| 20260506081400 | 40 | 349 | 0.0 | 0.0 | 0.00 | 0.00 | 0.00 | ||
| 20260506080847 | 40 | 350 | 0.0 | 0.0 | 0.00 | 0.00 | 0.00 | ||
| 20260506080335 | 40 | 340 | 0.0 | 0.0 | 0.00 | 0.00 | 0.00 | ||
| 20260506073218 | 39 | 247 | 0.0 | 0.0 | 0.00 | 0.00 | 0.00 | ||
| 20260506072705 | 39 | 56 | 0.0 | 0.0 | 0.00 | 0.00 | 0.00 | ||
| 20260506072152 | 39 | 258 | 0.0 | 0.0 | 0.00 | 0.00 | 0.00 | ||
| 20260506071639 | 39 | 270 | 0.0 | 0.0 | 0.00 | 0.00 | 0.00 | ||
| 20260506071127 | 39 | 202 | 0.0 | 0.0 | 0.00 | 0.00 | 0.00 | ||
| 20260506070613 | 39 | 202 | 0.0 | 0.0 | 0.00 | 0.00 | 0.00 | ||
| 20260506062431 | 40 | 348 | 0.0 | 0.0 | 0.00 | 0.00 | 0.00 | ||
| 20260506061918 | 40 | 348 | 0.0 | 0.0 | 0.00 | 0.00 | 0.00 | ||
| 20260506061405 | 40 | 58 | 0.0 | 0.0 | 0.00 | 0.00 | 0.00 | ||
| 20260506060852 | 40 | 123 | 0.0 | 0.0 | 0.00 | 0.00 | 0.00 | ||
| 20260506060339 | 40 | 183 | 0.0 | 0.0 | 0.00 | 0.00 | 0.00 | ||
| 20260506050618 | 43 | 335 | 0.0 | 0.0 | 0.00 | 0.00 | 0.00 | ||
| 20260506050105 | 43 | 351 | 0.0 | 0.0 | 0.00 | 0.00 | 0.00 | ||
| 20260506045039 | 43 | 340 | 0.0 | 0.0 | 0.00 | 0.00 | 0.00 | ||
| 20260506044526 | 44 | 325 | 0.0 | 0.0 | 0.00 | 0.00 | 0.00 | ||
| 20260506044014 | 44 | 335 | 0.0 | 0.0 | 0.00 | 0.00 | 0.00 | ||
| 20260506043501 | 44 | 324 | 0.0 | 0.0 | 0.00 | 0.00 | 0.00 | ||
| 20260506042948 | 45 | 318 | 0.0 | 0.0 | 0.00 | 0.00 | 0.00 | ||
| 20260506042435 | 45 | 329 | 0.0 | 0.0 | 0.00 | 0.00 | 0.00 | ||
| 20260506041922 | 45 | 324 | 0.0 | 0.0 | 0.00 | 0.00 | 0.00 | ||
| 20260506041410 | 45 | 338 | 0.0 | 0.0 | 0.00 | 0.00 | 0.00 | ||
| 20260506040856 | 46 | 5 | 0.0 | 0.0 | 0.00 | 0.00 | 0.00 | ||
| 20260506040343 | 46 | 324 | 0.0 | 0.0 | 0.00 | 0.00 | 0.00 | ||
| 20260506035831 | 46 | 342 | 0.0 | 0.0 | 0.00 | 0.00 | 0.00 | ||
| 20260506035318 | 46 | 332 | 0.0 | 0.0 | 0.00 | 0.00 | 0.00 | ||
| 20260506034805 | 46 | 67 | 0.0 | 0.0 | 0.00 | 0.00 | 0.00 | ||
| 20260506034252 | 46 | 325 | 0.0 | 0.0 | 0.00 | 0.00 | 0.00 | ||
| 20260506033739 | 46 | 327 | 0.0 | 0.0 | 0.00 | 0.00 | 0.00 | ||
| 20260506033227 | 46 | 328 | 0.0 | 0.0 | 0.00 | 0.00 | 0.00 | ||
| 20260506032714 | 46 | 331 | 0.0 | 0.0 | 0.00 | 0.00 | 0.00 | ||
| 20260506032201 | 46 | 336 | 0.0 | 0.0 | 0.00 | 0.00 | 0.00 | ||
| 20260506031649 | 46 | 322 | 0.0 | 0.0 | 0.00 | 0.00 | 0.00 | ||
| 20260506031135 | 46 | 322 | 0.0 | 0.0 | 0.00 | 0.00 | 0.00 | ||
| 20260506030109 | 46 | 341 | 0.0 | 0.0 | 0.00 | 0.00 | 0.00 | ||
| 20260506025557 | 46 | 346 | 0.0 | 0.0 | 0.00 | 0.00 | 0.00 | ||
| 20260506025044 | 46 | 322 | 0.0 | 0.0 | 0.00 | 0.00 | 0.00 | ||
| 20260506024531 | 47 | 112 | 0.0 | 0.0 | 0.00 | 0.00 | 0.00 | ||
| 20260506024018 | 47 | 340 | 0.0 | 0.0 | 0.00 | 0.00 | 0.00 | ||
| 20260506023505 | 47 | 3 | 0.0 | 0.0 | 0.00 | 0.00 | 0.00 | ||
| 20260506022440 | 48 | 320 | 0.0 | 0.0 | 0.00 | 0.00 | 0.00 | ||
| 20260506021927 | 48 | 316 | 0.0 | 2.0 | 0.00 | 0.00 | 0.00 | ||
| 20260506021414 | 48 | 317 | 0.0 | 1.0 | 0.00 | 0.00 | 0.00 | ||
| 20260506020901 | 48 | 330 | 0.0 | 0.0 | 0.00 | 0.00 | 0.00 | ||
| 20260506020348 | 49 | 321 | 0.0 | 2.0 | 0.00 | 0.00 | 0.00 | ||
| 20260506015835 | 49 | 315 | 0.0 | 3.0 | 0.00 | 0.00 | 0.00 |